Waarnemingen

Advertentie
Mijn weer
Rotterdam Zestienhoven, Nederland (6344): temperatuur & dauwpunt: 15.01.2017 11:00:00 - 21.01.2017 11:00:00 (CET)Rotterdam Zestienhoven, Nederland (6344): temperatuur 5cm: 15.01.2017 11:00:00 - 21.01.2017 11:00:00 (CET)Rotterdam Zestienhoven, Nederland (6344): windsnelheid & windstoten: 15.01.2017 11:00:00 - 21.01.2017 11:00:00 (CET)Rotterdam Zestienhoven, Nederland (6344): windrichting: 15.01.2017 11:00:00 - 21.01.2017 11:00:00 (CET)Rotterdam Zestienhoven, Nederland (6344): luchtdruk: 15.01.2017 11:00:00 - 21.01.2017 11:00:00 (CET)Rotterdam Zestienhoven, Nederland (6344): zicht: 15.01.2017 11:00:00 - 21.01.2017 11:00:00 (CET)Rotterdam Zestienhoven, Nederland (6344): neerslag: 15.01.2017 11:00:00 - 21.01.2017 11:00:00 (CET)
Datum & Tijd tt [°C] td [°C] tt 5cm [°C] ff [km/u] ff [kn] fx [km/u] fx [kn] dd ppp [hPa] vv [km] rr [mm]
21.01.2017 11:00:00 1,3 -0,2 1,1 15 8 22 12 O 1030,7 10 0,0
21.01.2017 10:00:00 -0,5 -0,9 -1,1 11 6 14 8 ONO 1030,9 5 0,0
21.01.2017 09:00:00 -1,3 -1,7 -2,6 14 8 18 10 ONO 1030,9 5 0,0
21.01.2017 08:00:00 -2,9 -3,3 -4,2 13 7 18 10 ONO 1030,7 4,7 0,0
21.01.2017 07:00:00 -2,8 -3,1 -4,1 13 7 14 8 ONO 1031,0 5 0,0
21.01.2017 06:00:00 -1,7 -2,0 -5,1 11 6 14 8 ONO 1031,5 4,8 0,0
21.01.2017 05:00:00 -2,0 -2,5 -4,9 5 3 11 6 NO 1032,0 4,7 0,0
21.01.2017 04:00:00 -2,8 -3,4 -4,2 8 4 14 8 NO 1032,3 5 0,0
21.01.2017 03:00:00 -1,3 -2,0 -4,2 8 4 14 8 NO 1032,5 7 0,0
21.01.2017 02:00:00 -1,0 -2,0 -3,8 8 4 14 8 NO 1032,7 9 0,0
21.01.2017 01:00:00 -1,9 -2,8 -3,3 13 7 18 10 ONO 1033,1 10 0,0
21.01.2017 00:00:00 -1,6 -3,0 -2,9 15 8 18 10 ONO 1033,5 10 0,0
20.01.2017 23:00:00 -1,3 -3,6 -3,3 13 7 14 8 ONO 1033,7 10 0,0
20.01.2017 22:00:00 -2,5 -5,6 -4,7 13 7 14 8 ONO 1033,9 10 0,0
20.01.2017 21:00:00 -0,4 -5,6 -3,8 9 5 14 8 NO 1034,0 10 0,0
20.01.2017 20:00:00 -0,8 -5,0 -3,4 11 6 14 8 NO 1034,0 10 0,0
20.01.2017 19:00:00 -0,7 -4,2 -2,8 11 6 14 8 NO 1033,9 10 0,0
20.01.2017 18:00:00 -0,1 -4,0 -1,4 13 7 14 8 NO 1034,2 10 0,0
20.01.2017 17:00:00 1,6 -3,8 0,3 9 5 14 8 NO 1034,2 10 0,0
20.01.2017 16:00:00 3,1 -3,7 1,9 13 7 14 8 ONO 1034,1 10 0,0
20.01.2017 15:00:00 3,4 -4,2 3,1 15 8 18 10 ONO 1034,1 10 0,0
20.01.2017 14:00:00 3,9 -7,8 3,7 15 8 22 12 ONO 1034,7 10 0,0
20.01.2017 13:00:00 4,4 -7,1 4,8 13 7 22 12 O 1035,2 10 0,0
20.01.2017 12:00:00 2,5 -4,1 2,8 11 6 14 8 ONO 1035,5 10 0,0
20.01.2017 11:00:00 0,4 -4,0 0,3 11 6 14 8 NO 1035,9 10 0,0
20.01.2017 10:00:00 -1,9 -3,8 -2,5 9 5 14 8 NO 1036,0 10 0,0
20.01.2017 09:00:00 -3,0 -5,0 -6,8 4 2 11 6 - 1035,9 9 0,0
20.01.2017 08:00:00 -3,5 -5,2 -7,7 4 2 11 6 NO 1035,8 10 0,0
20.01.2017 07:00:00 -4,3 -5,2 -8,2 4 2 4 2 NO 1035,9 6 0,0
20.01.2017 06:00:00 -3,7 -4,2 -7,6 4 2 7 4 ONO 1036,0 6 0,0
20.01.2017 05:00:00 -4,5 -5,3 -8,1 5 3 7 4 NO 1036,3 4,2 0,0
20.01.2017 04:00:00 -3,4 -4,1 -7,1 5 3 7 4 NO 1036,3 6 0,0
20.01.2017 03:00:00 -3,7 -4,3 -7,5 8 4 7 4 NO 1036,2 4,7 0,0
20.01.2017 02:00:00 -3,0 -3,7 -7,3 5 3 7 4 NO 1036,4 5 0,0
20.01.2017 01:00:00 -4,4 -5,1 -7,6 5 3 7 4 NNO 1036,8 4,8 0,0
20.01.2017 00:00:00 -2,4 -3,3 -7,2 5 3 7 4 ONO 1037,1 6 0,0
19.01.2017 23:00:00 -2,4 -3,8 -6,5 4 2 7 4 NO 1037,2 8 0,0
19.01.2017 22:00:00 -3,1 -4,7 -7,0 5 3 7 4 NO 1037,5 9 0,0
19.01.2017 21:00:00 -1,3 -3,8 -6,5 5 3 11 6 ONO 1037,7 10 0,0
19.01.2017 20:00:00 -1,8 -4,0 -6,5 5 3 7 4 NO 1037,6 10 0,0
19.01.2017 19:00:00 -1,6 -4,3 -6,0 5 3 7 4 NNO 1037,3 10 0,0
19.01.2017 18:00:00 0,3 -3,6 -4,6 5 3 14 8 NO 1037,3 10 0,0
19.01.2017 17:00:00 0,6 -3,8 -1,6 8 4 11 6 ONO 1037,2 10 0,0
19.01.2017 16:00:00 2,1 -3,4 1,8 8 4 14 8 NO 1037,2 10 0,0
19.01.2017 15:00:00 2,4 -5,1 2,9 11 6 14 8 NO 1037,3 10 0,0
19.01.2017 14:00:00 2,4 -3,7 3,5 8 4 14 8 O 1037,7 10 0,0
19.01.2017 13:00:00 1,6 -3,5 2,9 8 4 11 6 ONO 1038,0 10 0,0
19.01.2017 12:00:00 1,0 -4,1 2,2 5 3 11 6 O 1038,3 10 0,0
19.01.2017 11:00:00 -0,6 -3,5 0,0 8 4 7 4 OZO 1038,7 9 0,0
19.01.2017 10:00:00 -2,3 -3,3 -2,5 5 3 7 4 ONO 1038,9 4,6 0,0
19.01.2017 09:00:00 -4,1 -5,1 -7,7 7 4 7 4 ONO 1038,5 4,4 0,0
19.01.2017 08:00:00 -4,4 -5,3 -7,9 4 2 7 4 ONO 1038,1 4,0 0,0
19.01.2017 07:00:00 -5,3 -5,7 -7,7 4 2 7 4 O 1038,1 3,2 0,0
19.01.2017 06:00:00 -3,7 -4,2 -7,7 4 2 7 4 NO 1038,1 2,7 0,0
19.01.2017 05:00:00 -4,0 -4,4 -7,1 8 4 11 6 NO 1038,3 2,4 0,0
19.01.2017 04:00:00 -3,9 -4,5 -7,4 7 4 7 4 ONO 1038,3 2,3 0,0
19.01.2017 03:00:00 -3,9 -4,3 -6,0 5 3 7 4 NNO 1038,5 2,7 0,0
19.01.2017 02:00:00 -3,2 -3,7 -4,9 4 2 7 4 NO 1038,4 2,9 0,0
19.01.2017 01:00:00 -2,9 -3,5 -4,8 4 2 7 4 O 1038,8 2,8 0,0
19.01.2017 00:00:00 -2,8 -3,3 -4,3 5 3 7 4 ONO 1039,1 2,8 0,0
18.01.2017 23:00:00 -3,0 -3,7 -3,4 5 3 14 8 ONO 1038,9 3,1 0,0
18.01.2017 22:00:00 -2,3 -3,2 -2,4 8 4 11 6 NO 1039,1 3,3 0,0
18.01.2017 21:00:00 -2,4 -3,1 -2,5 8 4 7 4 NO 1039,0 2,9 0,0
18.01.2017 20:00:00 -2,7 -3,4 -3,1 8 4 11 6 ONO 1039,2 2,9 0,0
18.01.2017 19:00:00 -3,5 -4,3 -4,0 5 3 7 4 NO 1039,2 2,8 0,0
18.01.2017 18:00:00 -2,5 -3,6 -2,5 8 4 14 8 O 1039,5 3,1 0,0
18.01.2017 17:00:00 -2,6 -3,9 -2,6 9 5 14 8 OZO 1039,7 3,4 0,0
18.01.2017 16:00:00 -2,2 -3,5 -1,9 9 5 14 8 NO 1039,7 3,4 0,0
18.01.2017 15:00:00 -2,1 -3,5 -1,0 5 3 11 6 ONO 1039,4 3,3 0,0
18.01.2017 14:00:00 -2,5 -3,4 -1,0 5 3 14 8 O 1039,7 3,3 0,0
18.01.2017 13:00:00 -3,0 -3,5 -2,0 8 4 14 8 O 1040,3 2,6 0,0
18.01.2017 12:00:00 -3,1 -3,6 -2,3 9 5 14 8 ZO 1040,4 2,1 0,0
18.01.2017 11:00:00 -3,7 -4,0 -3,2 5 3 14 8 OZO 1040,6 2,0 0,0
18.01.2017 10:00:00 -4,1 -4,4 -3,7 9 5 14 8 ONO 1040,6 1,8 0,0
18.01.2017 09:00:00 -4,2 -4,8 -4,1 8 4 14 8 O 1040,2 2,1 0,0
18.01.2017 08:00:00 -4,4 -4,6 -4,4 5 3 14 8 ONO 1039,9 2,4 0,0
18.01.2017 07:00:00 -4,3 -4,6 -4,2 5 3 14 8 O 1039,8 2,4 0,0
18.01.2017 06:00:00 -4,3 -4,7 -4,3 9 5 14 8 O 1039,5 1,0 0,0
18.01.2017 05:00:00 -4,9 -5,2 -4,9 8 4 14 8 O 1039,6 0,8 0,0
18.01.2017 04:00:00 -5,2 -5,5 -5,1 8 4 14 8 O 1039,8 1,3 0,0
18.01.2017 03:00:00 -5,3 -5,7 -5,4 11 6 14 8 O 1039,9 1,5 0,0
18.01.2017 02:00:00 -4,3 -4,6 -8,0 5 3 7 4 OZO 1039,5 3,1 0,0
18.01.2017 01:00:00 -4,7 -5,3 -8,0 8 4 7 4 O 1039,7 2,9 0,0
18.01.2017 00:00:00 -4,5 -4,9 -8,1 8 4 7 4 O 1039,9 2,9 0,0
17.01.2017 23:00:00 -5,1 -5,9 -8,0 5 3 7 4 ONO 1039,7 3,1 0,0
17.01.2017 22:00:00 -3,8 -4,5 -7,3 5 3 11 6 ONO 1039,9 3,5 0,0
17.01.2017 21:00:00 -3,8 -4,6 -7,6 5 3 7 4 O 1039,6 4,1 0,0
17.01.2017 20:00:00 -3,2 -4,5 -7,1 5 3 14 8 OZO 1039,1 5 0,0
17.01.2017 19:00:00 -2,9 -4,2 -6,4 4 2 7 4 O 1038,9 5 0,0
17.01.2017 18:00:00 -3,2 -4,8 -5,7 8 4 14 8 ONO 1038,7 6 0,0
17.01.2017 17:00:00 -2,0 -4,1 -3,2 8 4 11 6 NO 1038,5 7 0,0
17.01.2017 16:00:00 -0,4 -3,9 -0,6 5 3 7 4 NO 1038,4 8 0,0
17.01.2017 15:00:00 -0,5 -4,0 0,4 4 2 4 2 - 1038,3 8 0,0
17.01.2017 14:00:00 -1,2 -4,3 -0,5 5 3 11 6 OZO 1038,3 8 0,0
17.01.2017 13:00:00 -1,1 -4,1 0,2 8 4 14 8 OZO 1038,8 7 0,0
17.01.2017 12:00:00 -2,4 -4,3 -1,7 8 4 18 10 OZO 1038,6 5 0,0
17.01.2017 11:00:00 -3,3 -4,5 -3,0 11 6 18 10 ZO 1038,6 4,0 0,0
17.01.2017 10:00:00 -3,9 -4,6 -3,7 13 7 18 10 O 1038,1 3,0 0,0
17.01.2017 09:00:00 -4,6 -5,3 -4,4 13 7 14 8 O 1037,6 2,7 0,0
17.01.2017 08:00:00 -4,8 -5,4 -4,5 11 6 14 8 O 1037,0 2,8 0,0
17.01.2017 07:00:00 -4,9 -5,5 -4,5 8 4 - - ZO 1036,5 3,2 0,0
17.01.2017 06:00:00 -4,8 -5,2 -4,5 11 6 18 10 O 1035,9 2,6 0,0
17.01.2017 05:00:00 -4,3 -4,9 -4,1 11 6 14 8 ONO 1035,7 2,7 0,0
17.01.2017 04:00:00 -4,0 -4,6 -3,8 8 4 - - ONO 1035,2 2,5 0,0
17.01.2017 03:00:00 -3,6 -4,2 -3,6 9 5 14 8 ONO 1035,0 2,6 0,0
17.01.2017 02:00:00 -3,3 -4,2 -3,2 13 7 18 10 O 1034,6 3,4 0,0
17.01.2017 01:00:00 -3,0 -4,2 -3,2 11 6 18 10 OZO 1034,4 4,4 0,0
17.01.2017 00:00:00 -2,9 -4,4 -3,5 13 7 18 10 O 1034,0 6 0,0
16.01.2017 23:00:00 -3,0 -4,6 -4,1 9 5 18 10 OZO 1033,7 8 0,0
16.01.2017 22:00:00 -2,9 -4,6 -3,5 11 6 14 8 OZO 1033,2 9 0,0
16.01.2017 21:00:00 -2,8 -4,5 -2,9 13 7 18 10 O 1032,5 10 0,0
16.01.2017 20:00:00 -2,1 -3,6 -2,3 11 6 18 10 OZO 1031,7 10 0,0
16.01.2017 19:00:00 -1,8 -3,1 -1,8 11 6 22 12 O 1031,0 10 0,0
16.01.2017 18:00:00 -1,4 -2,4 -1,4 13 7 22 12 OZO 1030,4 9 0,0
16.01.2017 17:00:00 -1,0 -1,7 -1,0 13 7 18 10 O 1029,8 8 0,0
16.01.2017 16:00:00 -0,6 -0,9 -0,2 15 8 18 10 O 1029,3 3,8 0,0
16.01.2017 15:00:00 0,7 -0,3 1,4 13 7 18 10 ONO 1028,7 10 0,0
16.01.2017 14:00:00 2,2 0,4 2,1 13 7 14 8 NO 1028,1 10 0,0
16.01.2017 13:00:00 2,8 0,5 3,4 13 7 18 10 ONO 1028,1 10 0,0
16.01.2017 12:00:00 3,0 0,7 3,8 11 6 18 10 ONO 1028,0 10 0,0
16.01.2017 11:00:00 1,8 1,1 1,7 11 6 18 10 ONO 1027,5 10 0,0
16.01.2017 10:00:00 0,0 -0,5 -1,2 2 1 4 2 - 1027,1 10 0,0
16.01.2017 09:00:00 0,0 -0,2 -2,3 4 2 7 4 - 1026,8 10 0,0
16.01.2017 08:00:00 -0,4 -0,5 -2,3 8 4 14 8 ONO 1026,0 10 0,0
16.01.2017 07:00:00 -0,1 -0,3 -1,6 2 1 7 4 NNO 1025,7 6 0,0
16.01.2017 06:00:00 -1,0 -1,2 -3,5 4 2 7 4 N 1025,2 7 0,0
16.01.2017 05:00:00 -1,4 -1,7 -3,7 2 1 4 2 - 1024,8 1,0 0,0
16.01.2017 04:00:00 0,9 0,7 -0,8 0 0 4 2 N 1024,6 10 0,0
16.01.2017 03:00:00 0,7 0,4 -0,1 4 2 4 2 WZW 1024,4 10 0,0
16.01.2017 02:00:00 1,0 0,9 0,3 2 1 4 2 - 1024,1 10 0,0
16.01.2017 01:00:00 1,1 0,7 0,2 4 2 14 8 - 1024,2 10 0,0
16.01.2017 00:00:00 1,4 1,2 0,8 13 7 18 10 WNW 1023,9 10 0,0
15.01.2017 23:00:00 1,1 0,4 0,0 4 2 7 4 NW 1023,7 10 0,0
15.01.2017 22:00:00 1,4 1,1 0,6 4 2 14 8 WZW 1023,3 10 0,0
15.01.2017 21:00:00 1,4 1,1 0,2 4 2 7 4 ZW 1023,1 10 0,0
15.01.2017 20:00:00 1,8 1,2 1,2 5 3 7 4 ZW 1022,7 10 0,0
15.01.2017 19:00:00 1,9 1,2 1,3 4 2 4 2 - 1022,3 10 0,0
15.01.2017 18:00:00 2,2 1,8 1,8 5 3 14 8 W 1021,9 10 0,0
15.01.2017 17:00:00 2,5 1,6 2,2 5 3 14 8 WZW 1021,4 10 0,0
15.01.2017 16:00:00 3,3 1,6 3,0 11 6 18 10 WZW 1021,1 10 0,0
15.01.2017 15:00:00 4,3 1,8 4,1 9 5 14 8 WZW 1020,9 10 0,0
15.01.2017 14:00:00 3,9 2,1 3,4 11 6 18 10 Z 1020,9 10 0,0
15.01.2017 13:00:00 3,1 1,7 2,8 8 4 14 8 ZW 1020,7 10 0,0
15.01.2017 12:00:00 2,8 0,9 2,6 5 3 14 8 W 1020,9 10 0,0
15.01.2017 11:00:00 1,8 0,9 0,8 8 4 7 4 ZZW 1021,0 10 0,0

tt = temperatuur
td = dauwpunt
tt 5cm = temperatuur 5cm
ff = windsnelheid
fx = windstoten
dd = windrichting
ppp = luchtdruk
vv = zicht
rr = neerslag

Weerstations in de omgeving